Spokane Fairchild, WA
on Tuesday, February 12, 2013

Tuesday
Previous Day Next Day
Daily Summary
 ActualAverage (KGEG)Record (KGEG)
Temperature
Mean Temperature °F 32°F  
Max Temperature 41°F 39°F 58°F (1924)
Min Temperature 28°F 26°F -18°F (1884)
Degree Days
Heating Degree Days 30 33  
Month to date heating degree days 398  
Since 1 July heating degree days 4331  
Cooling Degree Days 0 0  
Month to date cooling degree days 0  
Year to date cooling degree days 0  
Moisture
Dew Point 32°F   
Average Humidity 92    
Maximum Humidity 100    
Minimum Humidity 76    
Precipitation
Precipitation 0.00 in 0.05 in 0.59 in (1902)
Month to date precipitation 0.57  
Year to date precipitation 2.36  
Snow
Snow 0.00 in 0.20 in 7.70 in (1938)
Month to date snowfall 3.2  
Since 1 July snowfall 36.7  
Snow Depth in   
Wind
Wind Speed 7 mph   
Max Wind Speed 16 mph   
Max Gust Speed 24 mph   
Visibility 9 miles   
Events Snow   

Key: T is trace of precipitation, MM is missing value
Source: NWS Daily Summary
Time(PST)TemperatureDew PointHumidity Pressure Visibility Wind DirectionWind SpeedGust SpeedPrecipitationEvents Conditions
12:58 AM 32.0°F 30.6°F 94% 30.25 in 10.0 miles South 4.6 mph - N/A   Overcast
1:05 AM 32.0°F 30.2°F 93% 30.18 in 10.0 miles South 3.5 mph - N/A   Overcast
1:26 AM 32.0°F 32.0°F 100% 30.18 in 10.0 miles South 4.6 mph - N/A   Overcast
1:55 AM 32.0°F 30.2°F 93% 30.19 in 10.0 miles SSW 5.8 mph - N/A   Overcast
1:58 AM 32.0°F 30.2°F 93% 30.26 in 10.0 miles SSW 4.6 mph - 0.00 in   Overcast
2:18 AM 32.0°F 30.2°F 93% 30.19 in 10.0 miles SSW 5.8 mph - N/A   Overcast
2:27 AM 32.0°F 28.4°F 87% 30.19 in 10.0 miles SSW 6.9 mph - N/A   Overcast
2:42 AM 32.0°F 28.4°F 87% 30.19 in 10.0 miles SW 9.2 mph - N/A   Overcast
2:52 AM 32.0°F 28.4°F 87% 30.19 in 10.0 miles SSW 5.8 mph - N/A   Overcast
2:53 AM 32.0°F 28.4°F 87% 30.19 in 10.0 miles SW 5.8 mph - N/A   Overcast
2:58 AM 30.7°F 28.9°F 93% 30.26 in 10.0 miles SSW 6.9 mph - 0.00 in   Overcast
3:03 AM 32.0°F 28.4°F 87% 30.19 in 10.0 miles SW 8.1 mph - N/A   Overcast
3:12 AM 32.0°F 28.4°F 87% 30.19 in 10.0 miles South 5.8 mph - N/A   Overcast
3:15 AM 30.2°F 28.4°F 93% 30.19 in 10.0 miles SW 8.1 mph - N/A   Overcast
3:25 AM 30.2°F 28.4°F 93% 30.19 in 10.0 miles SW 5.8 mph - N/A   Overcast
3:35 AM 28.4°F 28.4°F 100% 30.19 in 10.0 miles SW 6.9 mph - N/A   Overcast
3:37 AM 28.4°F 28.4°F 100% 30.19 in 10.0 miles SW 8.1 mph - N/A   Overcast
3:42 AM 30.2°F 28.4°F 93% 30.19 in 9.0 miles SW 6.9 mph - N/A   Overcast
3:58 AM 29.5°F 29.3°F 99% 30.27 in 8.0 miles SW 6.9 mph - 0.00 in   Overcast
4:05 AM 30.2°F 28.4°F 93% 30.20 in 8.0 miles SSW 8.1 mph - N/A   Overcast
4:18 AM 28.4°F 28.4°F 100% 30.20 in 9.0 miles SSW 5.8 mph - N/A   Overcast
4:58 AM 29.7°F 29.1°F 98% 30.28 in 8.0 miles SW 4.6 mph - 0.00 in   Overcast
5:28 AM 30.2°F 28.4°F 93% 30.20 in 8.0 miles SW 4.6 mph - N/A   Overcast
5:58 AM 30.0°F 29.3°F 97% 30.30 in 8.0 miles WSW 5.8 mph - N/A   Overcast
6:05 AM 30.2°F 28.4°F 93% 30.22 in 8.0 miles SW 4.6 mph - N/A   Overcast
6:16 AM 30.2°F 28.4°F 93% 30.22 in 8.0 miles SW 4.6 mph - N/A   Overcast
6:58 AM 30.0°F 29.5°F 98% 30.30 in 6.0 miles SSW 3.5 mph - 0.00 in   Overcast
7:43 AM 32.0°F 30.2°F 93% 30.22 in 4.0 miles South 5.8 mph - N/A   Overcast
7:58 AM 30.4°F 30.2°F 99% 30.30 in 3.0 miles SSE 4.6 mph - 0.00 in   Overcast
8:08 AM 32.0°F 30.2°F 93% 30.24 in 4.0 miles South 5.8 mph - N/A   Overcast
8:48 AM 32.0°F 32.0°F 100% 30.25 in 7.0 miles South 5.8 mph - N/A   Overcast
8:58 AM 30.9°F 30.4°F 98% 30.33 in 8.0 miles South 5.8 mph - 0.00 in   Overcast
9:32 AM 32.0°F 32.0°F 100% 30.24 in 9.0 miles SSE 4.6 mph - N/A   Overcast
9:41 AM 32.0°F 30.2°F 93% 30.24 in 8.0 miles South 4.6 mph - N/A   Overcast
9:58 AM 31.5°F 30.6°F 96% 30.32 in 8.0 miles SSE 5.8 mph - 0.00 in   Overcast
10:18 AM 32.0°F 32.0°F 100% 30.25 in 7.0 miles SSW 4.6 mph - N/A   Overcast
10:30 AM 32.0°F 32.0°F 100% 30.24 in 7.0 miles South 8.1 mph - N/A   Overcast
10:50 AM 32.0°F 32.0°F 100% 30.24 in 1.8 miles South 5.8 mph - N/A   Overcast
10:55 AM 32.0°F 32.0°F 100% 30.24 in 1.2 miles South 5.8 mph - N/A   Overcast
10:58 AM 32.0°F 31.8°F 99% 30.32 in 1.2 miles South 6.9 mph - 0.00 in   Overcast
11:03 AM 32.0°F 32.0°F 100% 30.24 in 1.2 miles SSE 8.1 mph - N/A   Overcast
11:08 AM 32.0°F 32.0°F 100% 30.24 in 1.5 miles South 8.1 mph - N/A   Overcast
11:13 AM 32.0°F 32.0°F 100% 30.25 in 1.8 miles SSW 5.8 mph - N/A   Overcast
11:18 AM 32.0°F 32.0°F 100% 30.25 in 2.5 miles South 5.8 mph - N/A   Overcast
11:23 AM 32.0°F 32.0°F 100% 30.25 in 4.0 miles SSW 3.5 mph - N/A   Overcast
11:58 AM 33.3°F 31.6°F 94% 30.33 in 10.0 miles WSW 8.1 mph - N/A   Overcast
11:59 AM 32.0°F 32.0°F 100% 30.25 in 10.0 miles SW 6.9 mph - N/A   Overcast
12:09 PM 32.0°F 32.0°F 100% 30.25 in 10.0 miles SSW 9.2 mph - N/A   Overcast
12:15 PM 33.8°F 32.0°F 93% 30.25 in 10.0 miles SW 5.8 mph - N/A   Overcast
12:33 PM 32.0°F 32.0°F 100% 30.24 in 10.0 miles SSW 8.1 mph - N/A   Overcast
12:41 PM 32.0°F 32.0°F 100% 30.25 in 10.0 miles SSW 6.9 mph - N/A   Mostly Cloudy
12:46 PM 32.0°F 32.0°F 100% 30.25 in 10.0 miles SSW 5.8 mph - N/A   Mostly Cloudy
12:51 PM 33.8°F 32.0°F 93% 30.25 in 10.0 miles SSW 6.9 mph - N/A   Mostly Cloudy
12:58 PM 34.5°F 31.8°F 90% 30.32 in 10.0 miles SSW 6.9 mph - 0.00 in   Mostly Cloudy
1:18 PM 35.6°F 32.0°F 87% 30.25 in 10.0 miles SW 9.2 mph - N/A   Mostly Cloudy
1:23 PM 35.6°F 32.0°F 87% 30.24 in 10.0 miles SW 9.2 mph - N/A   Mostly Cloudy
1:41 PM 37.4°F 32.0°F 81% 30.24 in 10.0 miles SSW 8.1 mph - N/A   Mostly Cloudy
1:46 PM 37.4°F 32.0°F 81% 30.24 in 10.0 miles SSW 8.1 mph - N/A   Mostly Cloudy
1:58 PM 37.0°F 33.3°F 86% 30.31 in 10.0 miles SSW 8.1 mph - 0.00 in   Scattered Clouds
2:19 PM 37.4°F 33.8°F 87% 30.22 in 10.0 miles SSW 13.8 mph - N/A   Mostly Cloudy
2:58 PM 39.9°F 34.0°F 79% 30.27 in 10.0 miles SW 12.7 mph - 0.00 in   Clear
3:00 PM 41.0°F 33.8°F 76% 30.21 in 10.0 miles SSW 15.0 mph - N/A   Clear
3:23 PM 41.0°F 33.8°F 76% 30.22 in 10.0 miles SW 11.5 mph - N/A   Partly Cloudy
3:53 PM 41.0°F 33.8°F 76% 30.20 in 10.0 miles SSW 10.4 mph - N/A   Scattered Clouds
3:58 PM 40.1°F 33.6°F 78% 30.27 in 10.0 miles SSW 12.7 mph - 0.00 in   Scattered Clouds
4:58 PM 37.9°F 32.0°F 79% 30.27 in 10.0 miles SW 10.4 mph - N/A   Mostly Cloudy
5:58 PM 37.9°F 32.4°F 80% 30.25 in 10.0 miles SSW 13.8 mph - N/A   Overcast
6:20 PM 37.4°F 32.0°F 81% 30.19 in 10.0 miles SSW 12.7 mph - N/A   Overcast
6:32 PM 37.4°F 32.0°F 81% 30.19 in 10.0 miles SSW 12.7 mph - N/A   Overcast
6:58 PM 37.8°F 34.7°F 89% 30.24 in 10.0 miles SSW 13.8 mph - 0.00 in   Overcast
7:04 PM 37.4°F 35.6°F 93% 30.17 in 10.0 miles SSW 12.7 mph - N/A   Overcast
7:32 PM 37.4°F 35.6°F 93% 30.15 in 10.0 miles SSE 15.0 mph - N/A   Overcast
7:37 PM 37.4°F 35.6°F 93% 30.15 in 10.0 miles South 16.1 mph - N/A   Mostly Cloudy
7:45 PM 37.4°F 35.6°F 93% 30.15 in 10.0 miles SSW 16.1 mph - N/A   Overcast
7:48 PM 37.4°F 35.6°F 93% 30.15 in 10.0 miles SSW 13.8 mph - N/A   Overcast
7:53 PM 37.4°F 35.6°F 93% 30.14 in 10.0 miles SSW 13.8 mph - N/A   Overcast
7:56 PM 37.4°F 35.6°F 93% 30.14 in 10.0 miles SSW 13.8 mph - N/A   Overcast
7:58 PM 38.1°F 36.0°F 92% 30.21 in 10.0 miles SSW 13.8 mph - 0.00 in   Overcast
8:22 PM 39.2°F 35.6°F 87% 30.13 in 10.0 miles SSW 13.8 mph - N/A   Overcast
8:44 PM 39.2°F 35.6°F 87% 30.12 in 10.0 miles SSW 11.5 mph - N/A   Mostly Cloudy
8:58 PM 38.5°F 36.0°F 91% 30.19 in 10.0 miles SSW 12.7 mph - 0.00 in   Mostly Cloudy
9:23 PM 37.4°F 35.6°F 93% 30.11 in 10.0 miles SSW 16.1 mph 21.9 mph N/A   Overcast
9:58 PM 37.9°F 35.6°F 91% 30.17 in 10.0 miles SSW 16.1 mph 24.2 mph 0.00 in   Overcast
10:37 PM 37.4°F 35.6°F 93% 30.10 in 10.0 miles South 10.4 mph 20.7 mph N/A   Mostly Cloudy
10:58 PM 37.2°F 35.1°F 92% 30.17 in 10.0 miles SSW 10.4 mph - 0.00 in   Mostly Cloudy
10:59 PM 37.4°F 35.6°F 93% 30.10 in 10.0 miles SSW 10.4 mph - N/A Snow Light Snow
11:14 PM 37.4°F 33.8°F 87% 30.11 in 10.0 miles SSW 8.1 mph - N/A   Mostly Cloudy
11:58 PM 36.9°F 33.8°F 89% 30.18 in 10.0 miles SSW 8.1 mph - 0.00 in   Partly Cloudy
11:59 PM 37.4°F 33.8°F 87% 30.11 in 10.0 miles SSW 8.1 mph - N/A   Partly Cloudy
Moon Phase
Feb. 12 Feb. 17 Feb. 25 Mar. 04 Mar. 11
Sunrise:07:00 AM (PST) Moon Rise:07:45 AM (PST)2/12
Sunset:05:09 PM (PST) Moon Set:08:33 PM (PST)2/12

Copyright © 2014 The Weather Underground, Inc.